Lincoln, NE

8:58 AM CDT on July 27, 2017 (GMT -0500)
Lincoln Municipal

Weather History for KLNK - April, 2014

Change the Weather History Date:

Wednesday, April 30, 2014

  Actual Average Record
Temperature  
Mean Temperature 49 °F 57 °F  
Max Temperature 53 °F 69 °F 90 °F (1992)
Min Temperature 44 °F 45 °F 25 °F (1907)
Degree Days  
Heating Degree Days 16 9  
Month to date heating degree days 374 416  
Since 1 July heating degree days 6348 5893  
Cooling Degree Days 0 1  
Month to date cooling degree days 15 13  
Year to date cooling degree days 15 14  
Moisture  
Dew Point 34 °F    
Average Humidity 60    
Maximum Humidity 76    
Minimum Humidity 44    
Precipitation  
Precipitation T in 0.12 in 1.24 in (1972)
Month to date precipitation 3.50 2.71  
Year to date precipitation 4.49 6.05  
Snow  
Snow 0.00 in 0.00 in - ()
Month to date snowfall 0.5 1.4  
Since 1 July snowfall 18.2 25.9  
Snow Depth 0.00 in    
Sea Level Pressure  
Sea Level Pressure 29.97 in    
Wind  
Wind Speed 18 mph (NW)    
Max Wind Speed 30 mph    
Max Gust Speed 39 mph    
Visibility 10 miles    
Events Rain    
T = Trace of Precipitation, MM = Missing Value Source: NWS Daily Summary

Daily Weather History Graph

Daily Weather History Graph

Search for Another Location

Airport or City:

Trip Planner

Search our weather history database for the weather conditions in past years. The results will help you decide how hot, cold, wet, or windy it might be!

Date:

Astronomy

Apr. 30, 2014 Rise Set
Actual Time 6:26 AM CDT 8:22 PM CDT
Civil Twilight 5:56 AM CDT 8:52 PM CDT
Nautical Twilight 5:20 AM CDT 9:28 PM CDT
Astronomical Twilight 4:41 AM CDT 10:07 PM CDT
Moon 7:28 AM CDT (4/30) 10:02 PM CDT (4/30)
Length of Visible Light 14h 55m
Length of Day
13h 55m
New Moon, 2% of the Moon is Illuminated
Apr 30
New Moon
May 6
First Quarter
May 14
Full
May 21
Last Quarter
May 28
New

Hourly Weather History & Observations

Time (CDT) Temp. Windchill Dew Point Humidity Pressure Visibility Wind Dir Wind Speed Gust Speed Precip Events Conditions
12:52 AM 44.6 °F 39.7 °F 35.6 °F 71% 29.93 in 10.0 mi WNW 9.2 mph - N/A   Overcast
12:54 AM 44.1 °F 39.0 °F 35.1 °F 71% 29.94 in 10.0 mi NW 9.2 mph - N/A   Overcast
1:54 AM 44.1 °F 39.5 °F 37.0 °F 76% 29.94 in 10.0 mi NW 8.1 mph - 0.00 in   Overcast
2:26 AM 45.0 °F 38.9 °F 37.0 °F 74% 29.93 in 10.0 mi NW 12.7 mph - N/A   Overcast
2:54 AM 45.0 °F 38.9 °F 37.0 °F 74% 29.94 in 10.0 mi NW 12.7 mph - N/A   Overcast
3:54 AM 45.0 °F 39.3 °F 36.0 °F 71% 29.94 in 10.0 mi NW 11.5 mph - N/A   Overcast
4:54 AM 44.1 °F 40.1 °F 37.9 °F 79% 29.94 in 10.0 mi WNW 6.9 mph - 0.00 in Rain Light Rain
5:54 AM 44.6 °F 38.4 °F 35.6 °F 71% 29.93 in 10.0 mi WNW 12.7 mph - N/A   Overcast
6:54 AM 45.0 °F 37.9 °F 35.1 °F 68% 29.96 in 10.0 mi NW 16.1 mph - N/A   Overcast
7:54 AM 45.0 °F 37.4 °F 34.0 °F 65% 29.96 in 10.0 mi NW 18.4 mph - N/A   Partly Cloudy
8:54 AM 46.0 °F 38.0 °F 33.1 °F 61% 29.97 in 10.0 mi NW 21.9 mph 32.2 mph N/A   Scattered Clouds
9:54 AM 46.4 °F 37.9 °F 32.0 °F 57% 29.97 in 10.0 mi NW 25.3 mph 32.2 mph N/A   Mostly Cloudy
10:54 AM 50.0 °F - 33.1 °F 52% 29.99 in 10.0 mi NNW 18.4 mph 32.2 mph N/A   Overcast
11:54 AM 52.0 °F - 33.1 °F 49% 29.98 in 10.0 mi NNW 27.6 mph 33.4 mph N/A   Mostly Cloudy
12:54 PM 50.0 °F - 30.9 °F 48% 29.98 in 10.0 mi NW 25.3 mph 34.5 mph N/A   Overcast
1:54 PM 52.0 °F - 30.9 °F 45% 29.98 in 10.0 mi NW 24.2 mph 33.4 mph 0.00 in   Overcast
2:54 PM 48.9 °F - 32.0 °F 52% 30.00 in 10.0 mi NNW 26.5 mph 35.7 mph N/A   Overcast
3:54 PM 50.0 °F - 33.8 °F 54% 29.98 in 10.0 mi NW 21.9 mph 28.8 mph N/A Rain Light Rain
4:54 PM 51.1 °F - 33.1 °F 50% 29.98 in 10.0 mi NW 24.2 mph 31.1 mph 0.00 in   Overcast
5:54 PM 48.9 °F - 32.0 °F 52% 29.99 in 10.0 mi NNW 23.0 mph 34.5 mph N/A   Overcast
6:54 PM 48.0 °F - 33.1 °F 56% 30.00 in 10.0 mi NW 17.3 mph 26.5 mph N/A   Mostly Cloudy
7:54 PM 48.0 °F - 32.0 °F 54% 30.00 in 10.0 mi NW 15.0 mph 28.8 mph N/A   Overcast
8:54 PM 46.9 °F - 33.1 °F 59% 30.00 in 10.0 mi NW 12.7 mph 26.5 mph N/A   Overcast
9:54 PM 46.0 °F 39.6 °F 34.0 °F 63% 30.01 in 10.0 mi NW 15.0 mph - N/A   Overcast
10:54 PM 46.0 °F 39.9 °F 35.1 °F 66% 30.01 in 10.0 mi NW 13.8 mph - N/A   Overcast
11:32 PM 46.0 °F 39.6 °F 35.1 °F 66% 29.99 in 10.0 mi NW 15.0 mph - N/A   Overcast
11:54 PM 46.0 °F 40.2 °F 36.0 °F 68% 29.99 in 10.0 mi NW 12.7 mph - N/A   Overcast